TimeCDT,TemperatureF,Dew PointF,Humidity,Sea Level PressureIn,VisibilityMPH,Wind Direction,Wind SpeedMPH,Gust SpeedMPH,PrecipitationIn,Events,Conditions,WindDirDegrees,DateUTC
12:13 AM,42.8,42.8,100,29.85,7.0,NE,9.2,-,0.01,Rain,Light Rain,50,2013-05-22 05:13:00
12:33 AM,42.8,42.8,100,29.85,10.0,NE,5.8,16.1,0.01,,Drizzle,50,2013-05-22 05:33:00
12:53 AM,42.8,42.8,100,29.85,10.0,NE,6.9,-,0.01,Rain,Rain,40,2013-05-22 05:53:00
1:12 AM,42.8,42.8,100,29.85,10.0,NE,6.9,-,0.01,Rain,Light Rain,50,2013-05-22 06:12:00
1:33 AM,42.8,42.8,100,29.85,10.0,NE,6.9,-,0.01,Rain,Rain,50,2013-05-22 06:33:00
1:53 AM,42.8,42.8,100,29.84,10.0,NE,10.4,-,0.01,Rain,Rain,50,2013-05-22 06:53:00
2:12 AM,42.8,42.8,100,29.85,10.0,NE,6.9,-,N/A,Rain,Light Rain,50,2013-05-22 07:12:00
2:33 AM,44.6,42.8,93,29.84,10.0,NE,9.2,-,0.01,Rain,Light Rain,50,2013-05-22 07:33:00
2:53 AM,44.6,42.8,93,29.84,10.0,NE,8.1,-,0.01,Rain,Light Rain,50,2013-05-22 07:53:00
3:12 AM,44.6,42.8,93,29.83,10.0,ENE,9.2,17.3,N/A,Rain,Light Rain,60,2013-05-22 08:12:00
3:33 AM,44.6,42.8,93,29.83,10.0,NE,9.2,-,N/A,,Overcast,50,2013-05-22 08:33:00
3:53 AM,44.6,42.8,93,29.83,10.0,NE,5.8,16.1,N/A,,Overcast,50,2013-05-22 08:53:00
4:12 AM,44.6,42.8,93,29.83,10.0,NE,6.9,-,N/A,,Overcast,50,2013-05-22 09:12:00
4:33 AM,44.6,42.8,93,29.83,10.0,ENE,6.9,-,N/A,,Overcast,60,2013-05-22 09:33:00
4:53 AM,44.6,42.8,93,29.83,10.0,NE,8.1,-,N/A,,Overcast,50,2013-05-22 09:53:00
5:12 AM,44.6,42.8,93,29.84,10.0,NE,5.8,-,N/A,,Overcast,50,2013-05-22 10:12:00
5:33 AM,44.6,42.8,93,29.84,10.0,NE,6.9,-,N/A,,Overcast,50,2013-05-22 10:33:00
5:53 AM,44.6,42.8,93,29.85,10.0,NE,5.8,16.1,N/A,,Overcast,50,2013-05-22 10:53:00
6:12 AM,44.6,42.8,93,29.85,10.0,NE,9.2,-,N/A,,Overcast,50,2013-05-22 11:12:00
6:33 AM,44.6,42.8,93,29.85,10.0,NE,4.6,-,N/A,,Overcast,50,2013-05-22 11:33:00
6:53 AM,44.6,42.8,93,29.86,10.0,NE,6.9,-,N/A,,Mostly Cloudy,40,2013-05-22 11:53:00
7:12 AM,44.6,42.8,93,29.86,10.0,NNE,4.6,-,N/A,,Mostly Cloudy,30,2013-05-22 12:12:00
7:33 AM,44.6,42.8,93,29.87,10.0,NNE,3.5,-,N/A,,Overcast,20,2013-05-22 12:33:00
7:53 AM,44.6,42.8,93,29.88,10.0,NNE,3.5,-,N/A,,Overcast,30,2013-05-22 12:53:00
8:13 AM,44.6,42.8,93,29.88,10.0,NNE,4.6,-,N/A,,Overcast,30,2013-05-22 13:13:00
8:32 AM,46.4,42.8,87,29.89,10.0,NE,6.9,-,N/A,,Scattered Clouds,40,2013-05-22 13:32:00
8:53 AM,46.4,42.8,87,29.89,10.0,NNE,4.6,-,N/A,,Clear,30,2013-05-22 13:53:00
9:13 AM,46.4,42.8,87,29.89,10.0,NNE,5.8,-,N/A,,Scattered Clouds,30,2013-05-22 14:13:00
9:32 AM,48.2,42.8,82,29.89,10.0,NNE,4.6,-,N/A,,Scattered Clouds,30,2013-05-22 14:32:00
9:52 AM,48.2,42.8,82,29.90,10.0,NE,11.5,-,N/A,,Clear,50,2013-05-22 14:52:00
10:13 AM,50.0,42.8,76,29.90,10.0,NE,8.1,16.1,N/A,,Clear,50,2013-05-22 15:13:00
10:32 AM,51.8,41.0,67,29.90,10.0,NE,8.1,17.3,N/A,,Clear,50,2013-05-22 15:32:00
10:52 AM,51.8,41.0,67,29.90,10.0,NE,10.4,19.6,N/A,,Clear,50,2013-05-22 15:52:00
11:13 AM,53.6,42.8,67,29.90,10.0,NE,6.9,-,N/A,,Clear,50,2013-05-22 16:13:00
11:33 AM,55.4,42.8,63,29.90,10.0,NE,10.4,18.4,N/A,,Clear,40,2013-05-22 16:33:00
11:52 AM,57.2,42.8,59,29.89,10.0,ENE,11.5,-,N/A,,Clear,60,2013-05-22 16:52:00
12:13 PM,57.2,41.0,55,29.90,10.0,ENE,11.5,16.1,N/A,,Clear,70,2013-05-22 17:13:00
12:33 PM,59.0,39.2,48,29.90,10.0,NNE,12.7,20.7,N/A,,Clear,20,2013-05-22 17:33:00
12:52 PM,60.8,37.4,42,29.90,10.0,NNE,11.5,19.6,N/A,,Clear,20,2013-05-22 17:52:00
1:13 PM,60.8,35.6,39,29.90,10.0,NNE,11.5,21.9,N/A,,Clear,30,2013-05-22 18:13:00
1:33 PM,60.8,33.8,36,29.90,10.0,NNE,10.4,18.4,N/A,,Clear,20,2013-05-22 18:33:00
1:52 PM,60.8,30.2,31,29.90,10.0,NNE,13.8,20.7,N/A,,Clear,20,2013-05-22 18:52:00
2:13 PM,62.6,30.2,30,29.91,10.0,NE,12.7,19.6,N/A,,Clear,40,2013-05-22 19:13:00
2:33 PM,62.6,28.4,27,29.91,10.0,NNE,12.7,18.4,N/A,,Clear,30,2013-05-22 19:33:00
2:53 PM,62.6,28.4,27,29.91,10.0,NNE,10.4,19.6,N/A,,Clear,20,2013-05-22 19:53:00
3:12 PM,64.4,26.6,24,29.91,10.0,NE,12.7,19.6,N/A,,Clear,40,2013-05-22 20:12:00
3:32 PM,64.4,28.4,26,29.91,10.0,NE,12.7,20.7,N/A,,Clear,40,2013-05-22 20:32:00
3:53 PM,64.4,28.4,26,29.91,10.0,NNE,11.5,18.4,N/A,,Clear,20,2013-05-22 20:53:00
4:13 PM,64.4,28.4,26,29.91,10.0,NNE,11.5,23.0,N/A,,Clear,20,2013-05-22 21:13:00
4:33 PM,64.4,28.4,26,29.92,10.0,NNE,10.4,20.7,N/A,,Clear,30,2013-05-22 21:33:00
4:53 PM,64.4,30.2,28,29.92,10.0,North,9.2,16.1,N/A,,Clear,10,2013-05-22 21:53:00
5:12 PM,64.4,32.0,30,29.92,10.0,NNE,12.7,21.9,N/A,,Clear,30,2013-05-22 22:12:00
5:33 PM,66.2,33.8,30,29.93,10.0,NNE,8.1,16.1,N/A,,Clear,20,2013-05-22 22:33:00
5:53 PM,64.4,33.8,32,29.93,10.0,NNE,10.4,19.6,N/A,,Scattered Clouds,30,2013-05-22 22:53:00
6:12 PM,64.4,33.8,32,29.93,10.0,NNE,13.8,18.4,N/A,,Mostly Cloudy,30,2013-05-22 23:12:00
6:33 PM,64.4,35.6,34,29.94,10.0,NE,8.1,18.4,N/A,,Mostly Cloudy,50,2013-05-22 23:33:00
6:52 PM,62.6,35.6,37,29.95,10.0,ENE,6.9,-,N/A,,Mostly Cloudy,60,2013-05-22 23:52:00
7:13 PM,62.6,37.4,39,29.96,10.0,ENE,10.4,18.4,N/A,,Mostly Cloudy,70,2013-05-23 00:13:00
7:33 PM,60.8,39.2,45,29.97,10.0,ENE,9.2,16.1,N/A,,Overcast,60,2013-05-23 00:33:00
7:52 PM,60.8,39.2,45,29.98,10.0,NE,6.9,-,N/A,,Overcast,40,2013-05-23 00:52:00
8:13 PM,59.0,41.0,51,30.00,10.0,NE,11.5,17.3,N/A,,Mostly Cloudy,50,2013-05-23 01:13:00
8:33 PM,57.2,41.0,55,30.01,10.0,NE,8.1,-,N/A,,Scattered Clouds,40,2013-05-23 01:33:00
8:52 PM,55.4,42.8,63,30.02,10.0,NNE,10.4,-,N/A,,Clear,30,2013-05-23 01:52:00
9:13 PM,55.4,41.0,58,30.03,10.0,NE,10.4,16.1,N/A,,Clear,40,2013-05-23 02:13:00
9:33 PM,53.6,41.0,62,30.04,10.0,NE,12.7,18.4,N/A,,Clear,40,2013-05-23 02:33:00
9:52 PM,53.6,41.0,62,30.05,10.0,NE,8.1,16.1,N/A,,Clear,40,2013-05-23 02:52:00
10:13 PM,51.8,39.2,62,30.07,10.0,NE,10.4,17.3,N/A,,Clear,50,2013-05-23 03:13:00
10:33 PM,51.8,39.2,62,30.08,10.0,NE,8.1,16.1,N/A,,Clear,40,2013-05-23 03:33:00
10:52 PM,51.8,39.2,62,30.08,10.0,NE,6.9,-,N/A,,Clear,40,2013-05-23 03:52:00
11:13 PM,50.0,37.4,62,30.09,10.0,NE,8.1,-,N/A,,Clear,50,2013-05-23 04:13:00
11:33 PM,50.0,37.4,62,30.09,10.0,NNE,6.9,-,N/A,,Clear,30,2013-05-23 04:33:00
11:52 PM,48.2,35.6,62,30.10,10.0,NE,9.2,-,N/A,,Clear,50,2013-05-23 04:52:00